SCP
0 0 0 0 0 0 0 0 0 0 0 1 2 3 3 2 2 1 1 1 1 0 0 0 0 0 0 0 0 0 0 0 0 0 0 0 0 0 0 0 0 0 0
0 0 0 0 0 0 0 0 0 0 0 1 1 2 2 2 2 2 2 2 1 1 0 0 0 0 0 0 0 0 0 0 0 0 0 0 0 0 0 0 0 0 0
0 0 0 0 0 0 0 0 0 0 0 1 2 0 0 0 1 2 2 2 2 2 1 0 0 0 0 0 0 0 0 0 0 0 0 0 0 0 0 0 0 0 0
0 0 0 0 0 0 0 0 0 0 0 0 1 2 2 2 2 2 1 1 1 2 2 1 1 1 0 0 0 0 0 0 0 0 0 0 0 0 0 0 0 0 0
0 0 0 0 0 0 0 0 0 0 0 0 2 3 2 0 0 0 0 0 0 1 2 2 1 1 0 0 0 0 0 0 0 0 0 0 0 0 0 0 0 0 0
0 0 0 0 0 0 0 0 0 0 0 1 2 2 1 0 0 0 0 0 0 1 2 2 1 1 0 0 0 0 0 0 0 0 0 0 0 0 0 0 0 0 0
0 0 0 0 0 0 0 0 0 0 0 0 0 0 0 0 0 0 0 0 1 1 1 1 1 1 1 0 0 0 0 0 0 0 0 0 0 0 0 0 0 0 0
0 0 0 0 0 0 0 0 0 0 0 0 0 0 0 0 0 0 0 0 1 1 1 1 1 0 1 1 0 0 0 0 0 0 0 0 0 0 0 0 0 0 0
0 -0 0 0 0 0 0 0 0 0 0 0 0 0 0 0 0 0 1 1 2 1 1 1 1 1 1 0 0 0 0 0 0 0 0 0 0 0 0 0 0 0 0
0 0 -0 0 0 0 0 0 0 0 0 0 0 0 0 0 0 1 1 1 1 2 1 0 0 1 1 0 0 0 0 0 0 0 0 0 0 0 0 0 0 0 0
0 0 -0 0 0 0 0 0 0 0 0 0 0 0 0 1 1 1 1 1 1 1 0 0 0 1 0 0 0 0 0 0 0 0 0 0 0 0 0 0 0 0 0
0 0 0 0 0 0 0 0 0 0 0 0 0 0 1 1 1 1 1 1 1 1 0 0 1 0 1 0 0 0 0 0 0 0 0 0 0 0 0 0 0 0 0
-0 0 0 0 0 0 0 0 0 0 0 0 0 1 2 1 1 1 1 1 1 1 1 1 1 1 0 0 0 0 0 0 0 0 0 0 0 0 0 0 0 0 0
-0 0 0 0 0 0 0 0 0 1 1 1 1 2 2 1 1 1 1 1 1 1 1 0 0 0 0 0 0 0 0 0 0 0 0 0 0 0 0 0 0 0 0
-0 0 0 0 0 0 0 0 0 2 2 2 2 3 3 2 2 2 1 1 1 1 0 0 0 0 0 0 0 0 0 0 0 0 0 0 0 0 0 0 0 0 0
-0 0 0 0 0 0 0 0 1 3 3 3 3 3 2 2 2 1 1 1 0 0 0 0 0 0 0 0 0 0 0 0 0 0 0 0 0 0 0 0 0 0 0
0 0 0 0 0 -0 -0 1 1 2 3 3 2 2 2 1 1 1 0 0 0 0 0 0 0 0 0 0 0 0 0 0 0 0 0 0 0 0 0 0 0 0 0
0 0 0 0 0 0 0 0 0 1 2 2 1 1 1 1 0 0 0 0 0 0 0 0 0 0 0 0 0 0 0 0 0 0 0 0 0 -0 0 0 0 0 0
-0 -0 -0 0 -0 0 0 0 0 0 0 1 1 1 0 0 0 0 0 0 0 0 0 0 0 0 0 0 0 0 0 0 0 0 -0 0 0 0 0 0 0 0 0
0 0 0 0 -0 -0 -0 0 0 0 0 0 0 0 0 0 0 0 0 0 0 0 0 0 0 0 0 0 0 0 0 0 0 0 0 0 0 -0 0 0 0 0 0
-0 0 -0 -0 -0 -0 -0 0 0 0 0 0 0 0 0 0 0 0 0 0 0 0 0 0 0 0 0 0 0 -0 0 0 0 0 0 0 -0 -0 0 0 0 0 0
-0 0 -0 0 -0 -0 0 0 0 0 0 0 0 0 0 0 0 0 0 0 0 0 0 0 0 0 0 0 -0 -0 -0 -0 0 -0 -0 0 0 0 0 0 0 0 0
0 0 -0 0 -0 0 0 -0 -0 0 0 0 0 0 0 0 0 0 0 0 0 0 0 0 0 0 0 0 -0 -0 -0 -0 -0 -0 0 0 0 0 0 -0 -0 0 0
-0 -0 0 -0 0 0 0 0 0 0 0 0 0 0 0 0 0 0 0 0 0 0 0 0 0 0 0 0 0 -0 -0 -0 0 0 0 0 0 0 0 0 0 0 0
-0 0 0 0 0 0 0 0 0 0 0 0 0 0 0 0 0 0 0 0 0 0 0 0 0 0 0 0 -0 -0 -0 0 0 0 0 0 0 0 0 0 0 0 0
0 0 0 0 0 0 0 0 0 0 0 0 0 0 0 0 0 0 0 0 0 0 0 0 0 0 0 -0 -0 -0 -0 -0 -0 0 0 0 0 0 0 0 0 0 0
Wind_Speed_500mb
53 43 37 30 48 54 59 60 64 66 71 77 83 86 82 80 80 102 78 75 67 57 59 65 60 59 52 53 51 48 46 42 34 39 38 38 36 36 37 37 40 40 39
60 54 45 41 30 43 66 71 74 74 96 112 107 105 100 93 92 100 85 79 68 61 60 65 61 63 57 57 56 53 54 44 39 44 39 35 33 40 41 47 49 43 41
66 66 58 46 42 44 43 72 81 73 64 87 101 98 103 105 103 96 92 78 74 61 63 62 66 63 56 55 55 53 55 46 42 41 39 18 22 25 30 31 28 25 30
56 59 65 61 50 49 46 46 67 76 68 81 91 100 110 114 111 102 95 79 69 59 60 65 66 62 54 48 45 48 49 41 50 44 47 55 38 19 11 18 18 24 29
43 49 53 54 56 52 52 47 51 67 66 65 71 92 109 117 114 104 82 65 57 56 59 64 66 58 51 42 40 44 44 43 45 50 47 52 49 48 38 39 34 24 23
44 47 51 55 59 60 55 50 43 59 76 72 70 83 98 112 114 90 66 60 62 61 59 64 58 49 44 43 39 40 42 37 41 45 48 50 45 45 46 42 36 31 27
45 50 53 57 60 60 60 56 43 48 64 62 62 65 93 104 103 86 66 63 60 59 54 53 45 42 42 38 33 43 39 39 38 38 39 39 36 38 38 29 32 29 27
58 59 58 53 56 59 58 58 55 47 51 70 66 61 61 85 87 75 64 59 62 53 43 40 39 39 37 33 38 36 34 33 33 35 33 32 33 34 34 30 28 28 26
66 75 70 60 52 56 56 51 58 59 53 62 72 67 69 81 84 75 66 64 59 48 39 36 43 40 36 30 31 33 28 30 31 30 30 30 32 34 29 31 32 27 23
74 86 91 69 48 50 59 52 56 61 63 56 70 87 88 86 84 75 69 67 60 46 40 45 44 39 32 31 35 33 32 31 35 30 28 30 29 30 29 31 28 25 22
80 78 77 62 50 46 56 51 59 61 62 59 62 74 91 89 82 75 69 64 56 45 43 46 42 36 36 36 36 33 34 35 29 29 30 28 27 25 27 32 30 26 22
65 65 73 71 49 46 45 46 53 61 59 54 64 65 77 81 76 63 59 57 48 47 45 43 41 39 41 40 36 33 28 27 28 29 30 29 28 26 26 26 26 25 22
56 84 92 67 58 56 46 40 42 51 53 48 57 62 77 68 60 54 52 51 47 46 47 43 40 41 43 37 27 19 18 23 23 25 27 28 30 30 30 26 25 22 24
71 76 83 65 65 46 42 46 35 38 41 48 49 60 58 53 51 51 50 46 47 49 47 44 45 44 41 29 21 22 18 16 20 24 28 31 35 33 33 29 24 26 28
73 74 74 55 39 42 56 42 28 32 36 46 57 57 54 53 52 50 46 47 50 51 50 49 47 36 27 23 26 20 17 16 18 23 29 34 36 34 31 31 30 32 31
51 85 77 71 44 52 57 28 26 27 34 53 72 64 58 53 52 55 57 58 57 57 55 44 37 35 29 28 23 24 22 21 25 26 28 29 32 30 31 31 29 31 29
42 80 77 76 61 44 49 30 33 36 39 52 49 43 48 55 57 60 65 60 65 60 49 44 34 32 31 25 27 24 24 25 21 20 21 25 28 29 31 32 29 29 21
74 68 75 78 49 49 38 41 41 50 53 45 47 55 57 60 65 67 68 67 60 54 48 39 39 32 28 28 26 23 20 17 15 14 16 21 22 23 27 33 33 30 24
66 55 55 70 31 53 37 40 46 71 49 35 59 64 66 72 80 71 65 62 56 45 43 42 34 30 28 23 20 16 15 15 15 19 23 19 19 24 26 30 33 32 28
65 56 53 61 39 25 34 43 44 48 56 57 67 70 75 66 70 71 60 49 50 46 48 36 32 27 22 19 19 17 18 16 19 24 25 22 21 21 23 23 31 33 34
69 63 55 38 47 41 13 35 46 61 69 72 78 74 72 72 63 57 50 50 52 54 44 37 29 23 19 21 21 19 17 14 20 24 26 24 24 23 20 14 21 26 28
75 68 60 42 54 37 19 38 37 58 88 81 79 74 71 59 51 55 56 53 51 44 38 32 28 24 22 22 24 21 17 19 20 25 23 19 27 28 23 20 19 16 11
72 57 40 43 47 15 25 28 58 66 83 77 72 69 57 52 57 63 54 51 44 42 39 33 28 28 26 26 23 20 20 21 21 21 25 22 30 31 24 21 17 13 12
69 48 23 28 33 34 22 56 69 81 74 67 60 59 57 57 57 51 51 44 42 40 37 33 27 24 27 26 24 22 24 23 25 25 29 28 32 29 24 24 18 16 12
52 35 24 21 22 27 48 73 75 70 70 65 62 61 56 59 56 52 44 37 31 32 33 27 18 16 25 27 24 24 27 24 25 29 30 36 35 32 27 24 20 17 17
35 15 13 13 12 24 48 67 61 62 63 61 63 58 58 57 52 49 45 40 31 28 20 14 13 14 16 23 26 27 27 24 27 33 39 39 35 29 27 25 20 19 19
Wind_Direction_500mb
321 326 317 312 265 245 237 235 234 232 216 220 231 233 237 240 244 245 244 250 256 260 265 268 271 273 273 278 271 266 260 259 254 252 256 261 255 246 246 259 271 274 272
316 320 323 317 318 268 246 238 235 239 238 242 246 247 246 233 235 237 242 248 256 259 263 267 270 274 277 275 269 262 258 254 246 244 253 259 252 248 258 272 272 269 267
313 312 312 310 301 293 280 254 250 246 251 240 240 241 239 235 238 240 243 248 249 254 261 266 270 272 271 271 269 262 254 253 245 237 235 231 236 256 266 271 273 269 265
306 302 299 299 293 289 296 284 259 243 248 236 242 247 244 239 239 243 246 245 249 252 260 267 268 263 261 264 267 259 251 250 243 239 240 235 250 245 243 258 281 294 291
307 305 303 298 287 286 286 294 271 248 241 236 245 243 243 240 240 246 245 245 250 254 263 268 260 256 253 258 256 246 243 248 241 238 240 239 244 248 251 272 277 281 288
321 313 313 304 297 284 282 282 292 249 244 250 250 242 238 237 241 242 242 247 250 254 266 267 260 252 248 250 249 245 245 244 238 241 241 245 244 247 254 257 256 277 281
322 322 319 314 299 294 280 281 288 268 247 245 245 244 235 238 243 236 242 249 254 258 273 269 257 239 241 243 249 244 245 232 239 242 240 245 248 253 259 245 257 269 275
325 321 316 309 303 296 290 283 283 273 258 248 249 242 238 233 232 234 246 254 256 261 274 262 245 237 238 234 248 228 225 224 235 235 238 242 242 243 252 252 251 263 264
317 316 314 305 299 297 292 286 279 273 261 243 247 242 236 232 235 239 251 250 251 259 256 246 235 234 233 244 226 216 221 228 225 225 239 241 241 246 246 247 252 260 253
310 309 311 301 288 291 297 282 278 273 262 247 242 244 246 242 245 249 252 248 247 250 233 232 227 231 230 240 219 219 230 217 222 223 238 237 241 244 244 240 243 252 257
306 305 307 296 282 291 297 283 274 270 256 248 249 244 240 241 248 251 248 243 239 230 222 224 227 230 214 219 207 219 211 214 220 225 232 239 237 238 237 241 244 244 249
314 310 312 304 279 300 298 298 276 267 258 250 244 244 241 243 243 240 238 228 227 217 218 221 223 214 210 207 204 203 204 214 225 232 233 229 230 234 235 238 239 239 240
319 325 318 314 295 309 307 301 276 271 255 244 238 238 235 233 230 221 212 215 210 213 209 214 202 188 189 190 184 207 237 228 231 230 228 231 235 237 231 227 232 235 222
327 321 315 310 308 319 327 319 281 271 243 233 230 221 218 211 203 201 206 211 206 204 197 182 178 184 172 175 192 209 214 226 229 231 236 239 241 237 234 216 233 220 211
336 323 320 330 334 331 331 308 271 259 236 227 217 203 196 195 200 202 196 193 192 182 172 173 169 166 167 183 194 205 226 240 244 245 242 238 233 228 229 224 228 211 210
321 316 323 326 336 337 329 298 233 232 228 204 192 192 189 200 196 181 186 174 170 166 163 162 164 166 180 196 205 224 242 259 266 257 244 229 225 220 219 218 212 209 213
315 309 320 323 332 328 333 327 202 192 189 194 198 195 195 187 183 179 169 170 165 161 159 164 173 185 184 200 216 237 253 262 252 242 216 209 218 221 204 202 205 200 215
314 312 319 324 333 324 311 309 216 187 180 194 209 211 187 172 174 172 166 161 161 162 162 173 180 178 194 211 222 241 249 234 227 203 186 180 185 192 196 196 190 186 194
308 307 318 325 313 315 312 251 220 216 205 199 210 201 179 165 160 160 161 160 160 171 177 177 180 195 205 217 229 224 209 197 181 169 167 172 177 174 174 186 188 186 185
311 311 315 320 337 302 251 232 215 192 190 208 203 181 159 160 156 156 159 167 167 171 171 177 187 200 209 210 198 187 184 168 162 166 167 163 165 167 171 186 195 190 184
311 314 319 317 329 329 264 198 176 184 206 189 183 158 155 153 154 156 161 172 172 170 174 186 189 199 201 194 187 166 175 176 175 174 173 170 171 168 154 169 188 190 192
310 315 318 330 323 311 221 177 183 180 182 169 149 149 152 156 161 164 167 165 171 176 179 188 189 188 186 181 174 168 184 192 197 192 192 187 174 161 153 156 170 184 192
310 315 325 323 313 272 185 208 242 160 148 143 147 155 159 157 166 167 167 170 178 182 186 188 190 186 174 178 182 184 189 182 179 183 190 187 162 167 162 169 174 183 187
310 313 327 297 266 275 267 185 151 146 142 147 151 156 158 161 164 171 172 177 183 188 189 186 188 186 176 177 179 181 177 174 170 172 173 173 165 168 174 172 166 186 180
304 304 295 292 322 98 150 154 151 146 148 150 157 160 163 167 163 170 174 181 187 189 188 195 199 188 178 177 179 180 170 173 174 170 162 164 168 170 177 175 175 182 182
300 281 263 20 49 119 153 155 156 158 156 157 160 159 161 165 169 179 181 184 186 180 183 188 171 151 168 172 170 171 176 176 172 168 162 166 165 169 169 175 182 184 187
Wind_Speed_850mb
53 43 37 30 48 54 59 60 64 66 71 77 83 86 82 80 80 102 78 75 67 57 59 65 60 59 52 53 51 48 46 42 34 39 38 38 36 36 37 37 40 40 39
60 54 45 41 30 43 66 71 74 74 96 112 107 105 100 93 92 100 85 79 68 61 60 65 61 63 57 57 56 53 54 44 39 44 39 35 33 40 41 47 49 43 41
66 66 58 46 42 44 43 72 81 73 64 87 101 98 103 105 103 96 92 78 74 61 63 62 66 63 56 55 55 53 55 46 42 41 39 18 22 25 30 31 28 25 30
56 59 65 61 50 49 46 46 67 76 68 81 91 100 110 114 111 102 95 79 69 59 60 65 66 62 54 48 45 48 49 41 50 44 47 55 38 19 11 18 18 24 29
43 49 53 54 56 52 52 47 51 67 66 65 71 92 109 117 114 104 82 65 57 56 59 64 66 58 51 42 40 44 44 43 45 50 47 52 49 48 38 39 34 24 23
44 47 51 55 59 60 55 50 43 59 76 72 70 83 98 112 114 90 66 60 62 61 59 64 58 49 44 43 39 40 42 37 41 45 48 50 45 45 46 42 36 31 27
45 50 53 57 60 60 60 56 43 48 64 62 62 65 93 104 103 86 66 63 60 59 54 53 45 42 42 38 33 43 39 39 38 38 39 39 36 38 38 29 32 29 27
58 59 58 53 56 59 58 58 55 47 51 70 66 61 61 85 87 75 64 59 62 53 43 40 39 39 37 33 38 36 34 33 33 35 33 32 33 34 34 30 28 28 26
66 75 70 60 52 56 56 51 58 59 53 62 72 67 69 81 84 75 66 64 59 48 39 36 43 40 36 30 31 33 28 30 31 30 30 30 32 34 29 31 32 27 23
74 86 91 69 48 50 59 52 56 61 63 56 70 87 88 86 84 75 69 67 60 46 40 45 44 39 32 31 35 33 32 31 35 30 28 30 29 30 29 31 28 25 22
80 78 77 62 50 46 56 51 59 61 62 59 62 74 91 89 82 75 69 64 56 45 43 46 42 36 36 36 36 33 34 35 29 29 30 28 27 25 27 32 30 26 22
65 65 73 71 49 46 45 46 53 61 59 54 64 65 77 81 76 63 59 57 48 47 45 43 41 39 41 40 36 33 28 27 28 29 30 29 28 26 26 26 26 25 22
56 84 92 67 58 56 46 40 42 51 53 48 57 62 77 68 60 54 52 51 47 46 47 43 40 41 43 37 27 19 18 23 23 25 27 28 30 30 30 26 25 22 24
71 76 83 65 65 46 42 46 35 38 41 48 49 60 58 53 51 51 50 46 47 49 47 44 45 44 41 29 21 22 18 16 20 24 28 31 35 33 33 29 24 26 28
73 74 74 55 39 42 56 42 28 32 36 46 57 57 54 53 52 50 46 47 50 51 50 49 47 36 27 23 26 20 17 16 18 23 29 34 36 34 31 31 30 32 31
51 85 77 71 44 52 57 28 26 27 34 53 72 64 58 53 52 55 57 58 57 57 55 44 37 35 29 28 23 24 22 21 25 26 28 29 32 30 31 31 29 31 29
42 80 77 76 61 44 49 30 33 36 39 52 49 43 48 55 57 60 65 60 65 60 49 44 34 32 31 25 27 24 24 25 21 20 21 25 28 29 31 32 29 29 21
74 68 75 78 49 49 38 41 41 50 53 45 47 55 57 60 65 67 68 67 60 54 48 39 39 32 28 28 26 23 20 17 15 14 16 21 22 23 27 33 33 30 24
66 55 55 70 31 53 37 40 46 71 49 35 59 64 66 72 80 71 65 62 56 45 43 42 34 30 28 23 20 16 15 15 15 19 23 19 19 24 26 30 33 32 28
65 56 53 61 39 25 34 43 44 48 56 57 67 70 75 66 70 71 60 49 50 46 48 36 32 27 22 19 19 17 18 16 19 24 25 22 21 21 23 23 31 33 34
69 63 55 38 47 41 13 35 46 61 69 72 78 74 72 72 63 57 50 50 52 54 44 37 29 23 19 21 21 19 17 14 20 24 26 24 24 23 20 14 21 26 28
75 68 60 42 54 37 19 38 37 58 88 81 79 74 71 59 51 55 56 53 51 44 38 32 28 24 22 22 24 21 17 19 20 25 23 19 27 28 23 20 19 16 11
72 57 40 43 47 15 25 28 58 66 83 77 72 69 57 52 57 63 54 51 44 42 39 33 28 28 26 26 23 20 20 21 21 21 25 22 30 31 24 21 17 13 12
69 48 23 28 33 34 22 56 69 81 74 67 60 59 57 57 57 51 51 44 42 40 37 33 27 24 27 26 24 22 24 23 25 25 29 28 32 29 24 24 18 16 12
52 35 24 21 22 27 48 73 75 70 70 65 62 61 56 59 56 52 44 37 31 32 33 27 18 16 25 27 24 24 27 24 25 29 30 36 35 32 27 24 20 17 17
35 15 13 13 12 24 48 67 61 62 63 61 63 58 58 57 52 49 45 40 31 28 20 14 13 14 16 23 26 27 27 24 27 33 39 39 35 29 27 25 20 19 19
Wind_Direction_850mb
321 326 317 312 265 245 237 235 234 232 216 220 231 233 237 240 244 245 244 250 256 260 265 268 271 273 273 278 271 266 260 259 254 252 256 261 255 246 246 259 271 274 272
316 320 323 317 318 268 246 238 235 239 238 242 246 247 246 233 235 237 242 248 256 259 263 267 270 274 277 275 269 262 258 254 246 244 253 259 252 248 258 272 272 269 267
313 312 312 310 301 293 280 254 250 246 251 240 240 241 239 235 238 240 243 248 249 254 261 266 270 272 271 271 269 262 254 253 245 237 235 231 236 256 266 271 273 269 265
306 302 299 299 293 289 296 284 259 243 248 236 242 247 244 239 239 243 246 245 249 252 260 267 268 263 261 264 267 259 251 250 243 239 240 235 250 245 243 258 281 294 291
307 305 303 298 287 286 286 294 271 248 241 236 245 243 243 240 240 246 245 245 250 254 263 268 260 256 253 258 256 246 243 248 241 238 240 239 244 248 251 272 277 281 288
321 313 313 304 297 284 282 282 292 249 244 250 250 242 238 237 241 242 242 247 250 254 266 267 260 252 248 250 249 245 245 244 238 241 241 245 244 247 254 257 256 277 281
322 322 319 314 299 294 280 281 288 268 247 245 245 244 235 238 243 236 242 249 254 258 273 269 257 239 241 243 249 244 245 232 239 242 240 245 248 253 259 245 257 269 275
325 321 316 309 303 296 290 283 283 273 258 248 249 242 238 233 232 234 246 254 256 261 274 262 245 237 238 234 248 228 225 224 235 235 238 242 242 243 252 252 251 263 264
317 316 314 305 299 297 292 286 279 273 261 243 247 242 236 232 235 239 251 250 251 259 256 246 235 234 233 244 226 216 221 228 225 225 239 241 241 246 246 247 252 260 253
310 309 311 301 288 291 297 282 278 273 262 247 242 244 246 242 245 249 252 248 247 250 233 232 227 231 230 240 219 219 230 217 222 223 238 237 241 244 244 240 243 252 257
306 305 307 296 282 291 297 283 274 270 256 248 249 244 240 241 248 251 248 243 239 230 222 224 227 230 214 219 207 219 211 214 220 225 232 239 237 238 237 241 244 244 249
314 310 312 304 279 300 298 298 276 267 258 250 244 244 241 243 243 240 238 228 227 217 218 221 223 214 210 207 204 203 204 214 225 232 233 229 230 234 235 238 239 239 240
319 325 318 314 295 309 307 301 276 271 255 244 238 238 235 233 230 221 212 215 210 213 209 214 202 188 189 190 184 207 237 228 231 230 228 231 235 237 231 227 232 235 222
327 321 315 310 308 319 327 319 281 271 243 233 230 221 218 211 203 201 206 211 206 204 197 182 178 184 172 175 192 209 214 226 229 231 236 239 241 237 234 216 233 220 211
336 323 320 330 334 331 331 308 271 259 236 227 217 203 196 195 200 202 196 193 192 182 172 173 169 166 167 183 194 205 226 240 244 245 242 238 233 228 229 224 228 211 210
321 316 323 326 336 337 329 298 233 232 228 204 192 192 189 200 196 181 186 174 170 166 163 162 164 166 180 196 205 224 242 259 266 257 244 229 225 220 219 218 212 209 213
315 309 320 323 332 328 333 327 202 192 189 194 198 195 195 187 183 179 169 170 165 161 159 164 173 185 184 200 216 237 253 262 252 242 216 209 218 221 204 202 205 200 215
314 312 319 324 333 324 311 309 216 187 180 194 209 211 187 172 174 172 166 161 161 162 162 173 180 178 194 211 222 241 249 234 227 203 186 180 185 192 196 196 190 186 194
308 307 318 325 313 315 312 251 220 216 205 199 210 201 179 165 160 160 161 160 160 171 177 177 180 195 205 217 229 224 209 197 181 169 167 172 177 174 174 186 188 186 185
311 311 315 320 337 302 251 232 215 192 190 208 203 181 159 160 156 156 159 167 167 171 171 177 187 200 209 210 198 187 184 168 162 166 167 163 165 167 171 186 195 190 184
311 314 319 317 329 329 264 198 176 184 206 189 183 158 155 153 154 156 161 172 172 170 174 186 189 199 201 194 187 166 175 176 175 174 173 170 171 168 154 169 188 190 192
310 315 318 330 323 311 221 177 183 180 182 169 149 149 152 156 161 164 167 165 171 176 179 188 189 188 186 181 174 168 184 192 197 192 192 187 174 161 153 156 170 184 192
310 315 325 323 313 272 185 208 242 160 148 143 147 155 159 157 166 167 167 170 178 182 186 188 190 186 174 178 182 184 189 182 179 183 190 187 162 167 162 169 174 183 187
310 313 327 297 266 275 267 185 151 146 142 147 151 156 158 161 164 171 172 177 183 188 189 186 188 186 176 177 179 181 177 174 170 172 173 173 165 168 174 172 166 186 180
304 304 295 292 322 98 150 154 151 146 148 150 157 160 163 167 163 170 174 181 187 189 188 195 199 188 178 177 179 180 170 173 174 170 162 164 168 170 177 175 175 182 182
300 281 263 20 49 119 153 155 156 158 156 157 160 159 161 165 169 179 181 184 186 180 183 188 171 151 168 172 170 171 176 176 172 168 162 166 165 169 169 175 182 184 187